STARLINK-34612

Last updated on Fri Aug 08 2025 00:02:05 GMT+0000 (Coordinated Universal Time)

1 64773U 25147U 25218.91668981 .00009735 00000+0 25309-3 0 9997 2 64773 53.1606 163.4182 0001218 100.0521 340.0779 15.39612913 5933
UTC large
Height (km)
Speed (km/s)
/
Latitude / Longitude
Inclination (degrees)
Orbital Period (minutes)
Azimuth
Elevation
Range (km)
Doppler Factor

Next 0 passes for location: London (51.5072 / 0.1276)

Sorry there are no passes over London.